| time (UTC) | temp F | wind direction | speed MPH | gust MPH | rain 1hr in | rain 24hr in | rain mn in | humidity % | barometer mb |
| 20260508090029 | 58 | 0 | 0.0 | 1.0 | 0.00 | 0.14 | 0.00 | 86 | 1014.5 |
| 20260508084528 | 58 | 6 | 1.0 | 3.0 | 0.00 | 0.14 | 0.00 | 87 | 1014.0 |
| 20260508083030 | 58 | 108 | 0.0 | 4.0 | 0.00 | 0.14 | 0.00 | 87 | 1013.9 |
| 20260508081528 | 58 | 0 | 0.0 | 4.0 | 0.00 | 0.14 | 0.00 | 87 | 1014.0 |
| 20260508080028 | 59 | 0 | 0.0 | 1.0 | 0.00 | 0.14 | 0.00 | 86 | 1013.5 |
| 20260508074539 | 58 | 0 | 0.0 | 1.0 | 0.00 | 0.14 | 0.00 | 87 | 1013.5 |
| 20260508073030 | 58 | 104 | 0.0 | 2.0 | 0.00 | 0.14 | 0.00 | 86 | 1013.4 |
| 20260508071535 | 59 | 0 | 0.0 | 0.0 | 0.00 | 0.14 | 0.00 | 84 | 1013.2 |
| 20260508070029 | 58 | 0 | 0.0 | 0.0 | 0.00 | 0.14 | 0.00 | 86 | 1013.2 |
| 20260508064534 | 57 | 0 | 0.0 | 0.0 | 0.00 | 0.14 | 0.00 | 88 | 1013.0 |
| 20260508063030 | 0 | 0.0 | 0.0 | 0.00 | 0.14 | 0.00 | 1013.0 | ||
| 20260508061528 | 0 | 0.0 | 0.0 | 0.00 | 0.14 | 0.00 | 1012.8 | ||
| 20260508060032 | 0 | 0.0 | 0.0 | 0.00 | 0.14 | 0.00 | 1012.5 | ||
| 20260508054529 | 0 | 0.0 | 0.0 | 0.00 | 0.14 | 0.00 | 1012.2 | ||
| 20260508053044 | 0 | 0.0 | 0.0 | 0.00 | 0.14 | 0.00 | 1012.2 | ||
| 20260508051529 | 0 | 0.0 | 0.0 | 0.00 | 0.14 | 0.00 | 1012.2 | ||
| 20260508050030 | 0 | 0.0 | 0.0 | 0.00 | 0.14 | 0.00 | 1011.9 | ||
| 20260508044530 | 0 | 0.0 | 0.0 | 0.00 | 0.14 | 0.00 | 1011.9 | ||
| 20260508043027 | 0 | 0.0 | 0.0 | 0.00 | 0.14 | 0.00 | 1011.8 | ||
| 20260508041552 | 0 | 0.0 | 0.0 | 0.00 | 0.14 | 0.00 | 1012.0 | ||
| 20260508040028 | 0 | 0.0 | 0.0 | 0.00 | 0.14 | 0.00 | 1012.0 | ||
| 20260508034533 | 0 | 0.0 | 0.0 | 0.00 | 0.14 | 0.00 | 1011.5 | ||
| 20260508033030 | 0 | 0.0 | 0.0 | 0.00 | 0.14 | 0.00 | 1011.7 | ||
| 20260508031535 | 0 | 0.0 | 0.0 | 0.00 | 0.14 | 0.00 | 1011.7 | ||
| 20260508030034 | 0 | 0.0 | 0.0 | 0.00 | 0.14 | 0.00 | 1012.0 | ||
| 20260508024531 | 0 | 0.0 | 0.0 | 0.00 | 0.14 | 0.00 | 1012.1 | ||
| 20260508023033 | 0 | 0.0 | 0.0 | 0.00 | 0.14 | 0.00 | 1012.1 | ||
| 20260508021530 | 0 | 0.0 | 0.0 | 0.00 | 0.14 | 0.00 | 1012.3 | ||
| 20260508020039 | 0 | 0.0 | 0.0 | 0.00 | 0.14 | 0.00 | 1012.3 | ||
| 20260508014529 | 0 | 0.0 | 0.0 | 0.00 | 0.14 | 0.00 | 1012.4 | ||
| 20260508013029 | 0 | 0.0 | 0.0 | 0.00 | 0.14 | 0.00 | 1012.5 | ||
| 20260508011529 | 0 | 0.0 | 0.0 | 0.00 | 0.14 | 0.00 | 1012.6 | ||
| 20260508010028 | 0 | 0.0 | 0.0 | 0.00 | 0.14 | 0.00 | 1012.9 | ||
| 20260508004533 | 0 | 0.0 | 0.0 | 0.00 | 0.14 | 0.00 | 1013.1 | ||
| 20260508003035 | 0 | 0.0 | 0.0 | 0.00 | 0.14 | 0.00 | 1013.5 | ||
| 20260508001528 | 0 | 0.0 | 0.0 | 0.00 | 0.14 | 0.00 | 1013.5 | ||
| 20260508000032 | 0 | 0.0 | 0.0 | 0.00 | 0.14 | 0.00 | 1013.6 | ||
| 20260507234527 | 0 | 0.0 | 0.0 | 0.00 | 0.14 | 0.00 | 1013.7 | ||
| 20260507233050 | 0 | 0.0 | 0.0 | 0.00 | 0.14 | 0.00 | 1013.7 | ||
| 20260507231535 | 0 | 0.0 | 0.0 | 0.00 | 0.14 | 0.00 | 1013.8 | ||
| 20260507230028 | 0 | 0.0 | 0.0 | 0.00 | 0.14 | 0.00 | 1013.9 | ||
| 20260507224531 | 0 | 0.0 | 0.0 | 0.00 | 0.14 | 0.00 | 1013.8 | ||
| 20260507223029 | 0 | 0.0 | 0.0 | 0.00 | 0.14 | 0.00 | 1014.0 | ||
| 20260507221534 | 58 | 3.0 | 5.0 | 0.00 | 0.14 | 0.00 | 90 | 1013.8 | |
| 20260507220031 | 57 | 274 | 1.0 | 3.0 | 0.00 | 0.14 | 0.00 | 90 | 1013.5 |
| 20260507214530 | 58 | 0 | 1.0 | 1.0 | 0.00 | 0.14 | 0.14 | 89 | 1013.5 |
| 20260507213033 | 58 | 322 | 1.0 | 2.0 | 0.00 | 0.14 | 0.14 | 88 | 1013.6 |
| 20260507211530 | 59 | 0 | 0.0 | 1.0 | 0.00 | 0.14 | 0.14 | 87 | 1013.5 |
| 20260507210030 | 59 | 0 | 0.0 | 2.0 | 0.00 | 0.14 | 0.14 | 86 | 1013.5 |
| 20260507204530 | 59 | 127 | 1.0 | 4.0 | 0.00 | 0.14 | 0.14 | 86 | 1013.5 |
| 20260507203032 | 59 | 105 | 2.0 | 5.0 | 0.00 | 0.14 | 0.14 | 85 | 1013.3 |
| 20260507201529 | 59 | 105 | 3.0 | 7.0 | 0.00 | 0.14 | 0.14 | 85 | 1013.3 |
| 20260507200033 | 59 | 143 | 3.0 | 7.0 | 0.00 | 0.14 | 0.14 | 87 | 1013.3 |
| 20260507194554 | 59 | 118 | 4.0 | 6.0 | 0.00 | 0.14 | 0.14 | 87 | 1012.9 |
| 20260507193030 | 60 | 133 | 3.0 | 6.0 | 0.00 | 0.14 | 0.14 | 87 | 1012.6 |
| 20260507191533 | 60 | 154 | 2.0 | 5.0 | 0.00 | 0.14 | 0.14 | 87 | 1012.4 |
| 20260507190029 | 60 | 147 | 1.0 | 4.0 | 0.00 | 0.14 | 0.14 | 86 | 1012.2 |
| 20260507184535 | 61 | 110 | 3.0 | 5.0 | 0.00 | 0.14 | 0.14 | 85 | 1012.0 |
| 20260507183037 | 61 | 108 | 4.0 | 7.0 | 0.04 | 0.14 | 0.14 | 84 | 1011.8 |
| 20260507181529 | 61 | 115 | 2.0 | 5.0 | 0.09 | 0.14 | 0.14 | 84 | 1011.5 |
| 20260507180034 | 60 | 129 | 1.0 | 5.0 | 0.09 | 0.14 | 0.14 | 84 | 1011.6 |
| 20260507174530 | 60 | 119 | 2.0 | 4.0 | 0.09 | 0.14 | 0.14 | 86 | 1011.8 |
| 20260507173038 | 61 | 128 | 1.0 | 4.0 | 0.04 | 0.10 | 0.10 | 86 | 1011.8 |
| 20260507171541 | 62 | 103 | 1.0 | 7.0 | 0.02 | 0.05 | 0.05 | 84 | 1011.5 |
| 20260507170028 | 63 | 108 | 3.0 | 6.0 | 0.04 | 0.05 | 0.05 | 84 | 1011.3 |
| 20260507164533 | 64 | 0 | 0.0 | 6.0 | 0.05 | 0.05 | 0.05 | 82 | 1011.2 |
| 20260507163029 | 65 | 0 | 1.0 | 4.0 | 0.05 | 0.05 | 0.05 | 80 | 1011.0 |
| 20260507161530 | 64 | 73 | 2.0 | 6.0 | 0.03 | 0.03 | 0.03 | 82 | 1010.8 |
| 20260507160033 | 63 | 262 | 4.0 | 12.0 | 0.00 | 0.00 | 0.00 | 79 | 1010.7 |
| 20260507154531 | 64 | 288 | 7.0 | 12.0 | 0.00 | 0.00 | 0.00 | 78 | 1010.7 |
| 20260507153029 | 65 | 271 | 7.0 | 12.0 | 0.00 | 0.00 | 0.00 | 77 | 1010.6 |
| 20260507151530 | 68 | 0 | 0.0 | 4.0 | 0.00 | 0.00 | 0.00 | 76 | 1010.7 |
| 20260507150027 | 68 | 118 | 2.0 | 6.0 | 0.00 | 0.00 | 0.00 | 75 | 1010.7 |
| 20260507144533 | 67 | 112 | 0.0 | 4.0 | 0.00 | 0.00 | 0.00 | 75 | 1010.8 |
| 20260507143027 | 67 | 75 | 2.0 | 7.0 | 0.00 | 0.00 | 0.00 | 75 | 1010.6 |
| 20260507141527 | 67 | 161 | 3.0 | 9.0 | 0.00 | 0.00 | 0.00 | 76 | 1010.4 |
| 20260507140028 | 67 | 127 | 6.0 | 12.0 | 0.00 | 0.00 | 0.00 | 72 | 1010.4 |
| 20260507134529 | 66 | 140 | 10.0 | 15.0 | 0.00 | 0.00 | 0.00 | 73 | 1010.4 |
| 20260507133030 | 67 | 121 | 9.0 | 13.0 | 0.00 | 0.00 | 0.00 | 71 | 1010.6 |
| 20260507131533 | 69 | 101 | 7.0 | 12.0 | 0.00 | 0.00 | 0.00 | 68 | 1010.6 |
| 20260507130028 | 70 | 114 | 9.0 | 15.0 | 0.00 | 0.00 | 0.00 | 64 | 1010.8 |
| 20260507124529 | 70 | 86 | 9.0 | 16.0 | 0.00 | 0.00 | 0.00 | 63 | 1010.8 |
| 20260507123038 | 70 | 60 | 8.0 | 12.0 | 0.00 | 0.00 | 0.00 | 63 | 1011.0 |
| 20260507121530 | 70 | 90 | 7.0 | 14.0 | 0.00 | 0.00 | 0.00 | 63 | 1011.1 |
| 20260507120040 | 69 | 113 | 7.0 | 13.0 | 0.00 | 0.00 | 0.00 | 64 | 1011.4 |
| 20260507114527 | 69 | 75 | 5.0 | 11.0 | 0.00 | 0.00 | 0.00 | 65 | 1011.2 |
| 20260507113039 | 69 | 120 | 6.0 | 12.0 | 0.00 | 0.00 | 0.00 | 65 | 1011.5 |
| 20260507111530 | 69 | 70 | 5.0 | 11.0 | 0.00 | 0.00 | 0.00 | 67 | 1011.6 |
| 20260507110031 | 69 | 88 | 7.0 | 14.0 | 0.00 | 0.00 | 0.00 | 67 | 1011.7 |
| 20260507104528 | 69 | 141 | 6.0 | 14.0 | 0.00 | 0.00 | 0.00 | 67 | 1011.8 |
| 20260507103027 | 70 | 70 | 6.0 | 12.0 | 0.00 | 0.00 | 0.00 | 67 | 1011.9 |
| 20260507101530 | 69 | 126 | 5.0 | 13.0 | 0.00 | 0.00 | 0.00 | 68 | 1011.8 |
| 20260507100036 | 69 | 66 | 9.0 | 13.0 | 0.00 | 0.00 | 0.00 | 67 | 1012.1 |
| 20260507094528 | 69 | 113 | 7.0 | 12.0 | 0.00 | 0.00 | 0.00 | 67 | 1011.8 |
| 20260507093030 | 69 | 75 | 8.0 | 14.0 | 0.00 | 0.00 | 0.00 | 67 | 1012.1 |
| 20260507091527 | 68 | 86 | 6.0 | 15.0 | 0.00 | 0.00 | 0.00 | 68 | 1012.0 |